TimeCST,TemperatureF,Dew PointF,Humidity,Sea Level PressureIn,VisibilityMPH,Wind Direction,Wind SpeedMPH,Gust SpeedMPH,PrecipitationIn,Events,Conditions,WindDirDegrees,DateUTC
6:00 AM,78,63,50,29.86,12,NE,9.2,,,,,50,2013-02-17 12:00:00
6:00 AM,-9999,-9999,N/A,-9999,-9999.0,NE,9.2,21.9,N/A,,Clear,50,2013-02-17 12:00:00
7:00 AM,80.6,62.6,54,29.86,-9999.0,ENE,19.6,-,N/A,,Clear,70,2013-02-17 13:00:00
8:00 AM,82.4,60.8,48,29.87,-9999.0,ENE,19.6,-,N/A,,Clear,70,2013-02-17 14:00:00
9:00 AM,86,59,30,29.90,12,ENE,21.9,,,,,70,2013-02-17 15:00:00
9:00 AM,86.0,59.0,40,29.89,-9999.0,ENE,21.9,-,N/A,,Clear,70,2013-02-17 15:00:00
10:00 AM,87.8,59.0,38,29.89,-9999.0,ENE,23.0,-,N/A,,Clear,70,2013-02-17 16:00:00
11:00 AM,87.8,57.2,35,29.88,-9999.0,East,21.9,35.7,N/A,,Clear,80,2013-02-17 17:00:00
12:00 PM,89,61,29,29.86,12,East,21.9,,,,,80,2013-02-17 18:00:00
12:00 PM,89.6,60.8,38,29.85,-9999.0,East,21.9,36.8,N/A,,Clear,80,2013-02-17 18:00:00
1:00 PM,87.8,62.6,43,29.82,-9999.0,East,25.3,36.8,N/A,,Clear,80,2013-02-17 19:00:00
2:00 PM,89.6,57.2,33,29.78,-9999.0,East,25.3,36.8,N/A,,Clear,80,2013-02-17 20:00:00
3:00 PM,89.6,55.4,31,29.77,-9999.0,ENE,23.0,-,N/A,,Clear,60,2013-02-17 21:00:00
4:00 PM,87.8,60.8,40,29.77,-9999.0,ENE,23.0,34.5,N/A,,Clear,70,2013-02-17 22:00:00
5:00 PM,84.2,60.8,45,29.79,-9999.0,ENE,25.3,36.8,N/A,,Clear,70,2013-02-17 23:00:00
6:00 PM,82.4,60.8,48,29.80,-9999.0,ENE,23.0,34.5,N/A,,Clear,70,2013-02-18 00:00:00
7:00 PM,80.6,60.8,51,29.83,-9999.0,ENE,23.0,-,N/A,,Clear,70,2013-02-18 01:00:00
8:00 PM,78.8,62.6,57,29.87,-9999.0,NW,11.5,-,N/A,,Clear,320,2013-02-18 02:00:00
9:00 PM,78.8,62.6,57,29.90,-9999.0,ENE,16.1,-,N/A,,Clear,60,2013-02-18 03:00:00
10:00 PM,77.0,64.4,65,29.91,-9999.0,ENE,16.1,-,N/A,,Clear,70,2013-02-18 04:00:00
11:00 PM,75.2,62.6,65,29.92,-9999.0,NE,19.6,-,N/A,,Clear,50,2013-02-18 05:00:00